This is the latest recevied weather packets stored in our database for station/object W5GMO. If no packets are shown the sender has not sent any weather packets the latest 10 day(s).
| Time | Temp. | Humidity | Pressure | Rain* | Wind** | Luminosity | Snow |
|---|---|---|---|---|---|---|---|
| 1788190323 | 28.89° C | 1% | 1019.9 hPa | 0 mm | - | 805 W/m² | - |
| 1788190019 | 28.89° C | 1% | 1019.7 hPa | 0 mm | - | 788 W/m² | - |
| 1788189715 | 28.33° C | 1% | 1020 hPa | 0 mm | - | 752 W/m² | - |
| 1788189414 | 28.89° C | 1% | 1019.9 hPa | 0 mm | - | 704 W/m² | - |
| 1788189109 | 28.33° C | 1% | 1019.9 hPa | 0 mm | - | 689 W/m² | - |
| 1788188804 | 27.78° C | 1% | 1019.9 hPa | 0 mm | - | 261 W/m² | - |
| 1788188500 | 28.33° C | 1% | 1020.1 hPa | 0 mm | - | 263 W/m² | - |
| 1788188198 | 27.78° C | 1% | 1020.2 hPa | 0 mm | - | 391 W/m² | - |
| 1788187895 | 27.22° C | 1% | 1020.1 hPa | 0 mm | - | 489 W/m² | - |
| 1788187591 | 27.22° C | 1% | 1020.1 hPa | 0 mm | - | 305 W/m² | - |
| 1788187286 | 27.22° C | 1% | 1020.3 hPa | 0 mm | - | 303 W/m² | - |
| 1788186986 | 27.78° C | 1% | 1019.9 hPa | 0 mm | - | 250 W/m² | - |
| 1788186681 | 27.22° C | 1% | 1019.9 hPa | 0 mm | - | 330 W/m² | - |
| 1788186378 | 26.67° C | 1% | 1019.8 hPa | 0 mm | - | 407 W/m² | - |
| 1788186073 | 27.22° C | 1% | 1019.7 hPa | 0 mm | - | 493 W/m² | - |
| 1788185772 | 26.67° C | 1% | 1019.9 hPa | 0 mm | - | 586 W/m² | - |
| 1788185467 | 26.67° C | 1% | 1019.7 hPa | 0 mm | - | 270 W/m² | - |
| 1788185166 | 26.11° C | 1% | 1019.8 hPa | 0 mm | - | 360 W/m² | - |
| 1788184861 | 26.67° C | 1% | 1019.9 hPa | 0 mm | - | 251 W/m² | - |
| 1788184559 | 26.11° C | 1% | 1019.9 hPa | 0 mm | - | 301 W/m² | - |
| 1788184254 | 25.56° C | 1% | 1020 hPa | 0 mm | - | 263 W/m² | - |
| 1788183945 | 26.11° C | 1% | 1020 hPa | 0 mm | - | 256 W/m² | - |
| 1788183644 | 25.56° C | 1% | 1020 hPa | 0 mm | - | 288 W/m² | - |
| 1788183338 | 25.56° C | 1% | 1020.2 hPa | 0 mm | - | 332 W/m² | - |
| 1788183034 | 25.56° C | 1% | 1020.2 hPa | 0 mm | - | 352 W/m² | - |
* Rain latest hour (hover to see other rain measurements)
** Current wind speed in m/s (hover to see current wind gust speed)